CMP242 MGGT-MHTG

Flight info

Callsign CMP242
Flight time 0h 44m
Altitude 27000
Route PALEN DCT LAGOX UA552 NAGEL DCT VITAN VITAN1A
Aircraft B38M/M-SDE1FGHILORVWXY/HB1

Departure

Time 2026-04-17 03:27
Airport La Aurora International Airport (MGGT)

Arrival

Time 2026-04-17 04:12
Airport Toncontín Airport (MHTG)
Time Latitude Longitude Altitude Speed Heading
2026-04-17 03:04 14.59083 -90.52824 4937 ft 0 kts 287°
2026-04-17 03:13 14.59080 -90.52812 4929 ft 3 kts 284°
2026-04-17 03:14 14.59078 -90.52806 4929 ft 0 kts 282°
2026-04-17 03:17 14.59078 -90.52805 4929 ft 0 kts 282°
2026-04-17 03:17 14.59075 -90.52790 4928 ft 3 kts 282°
2026-04-17 03:17 14.59071 -90.52771 4928 ft 3 kts 282°
2026-04-17 03:18 14.59067 -90.52752 4929 ft 3 kts 282°
2026-04-17 03:18 14.59063 -90.52734 4928 ft 3 kts 282°
2026-04-17 03:18 14.59060 -90.52717 4927 ft 1 kts 282°
2026-04-17 03:21 14.59058 -90.52722 4927 ft 2 kts 251°
2026-04-17 03:21 14.59030 -90.52739 4926 ft 6 kts 196°
2026-04-17 03:21 14.58987 -90.52752 4924 ft 7 kts 197°
2026-04-17 03:22 14.58936 -90.52769 4924 ft 8 kts 197°
2026-04-17 03:22 14.58876 -90.52786 4923 ft 8 kts 182°
2026-04-17 03:22 14.58829 -90.52767 4923 ft 8 kts 157°
2026-04-17 03:22 14.58791 -90.52732 4923 ft 7 kts 115°
2026-04-17 03:23 14.58775 -90.52688 4922 ft 6 kts 130°
2026-04-17 03:23 14.58744 -90.52684 4921 ft 7 kts 190°
2026-04-17 03:23 14.58684 -90.52704 4919 ft 12 kts 197°
2026-04-17 03:23 14.58592 -90.52733 4917 ft 16 kts 197°
2026-04-17 03:24 14.58478 -90.52770 4912 ft 18 kts 197°
2026-04-17 03:24 14.58353 -90.52811 4913 ft 19 kts 197°
2026-04-17 03:24 14.58215 -90.52856 4907 ft 22 kts 197°
2026-04-17 03:24 14.58058 -90.52907 4906 ft 25 kts 197°
2026-04-17 03:25 14.57880 -90.52964 4890 ft 29 kts 197°
2026-04-17 03:25 14.57678 -90.53029 4886 ft 32 kts 197°
2026-04-17 03:25 14.57459 -90.53100 4877 ft 34 kts 197°
2026-04-17 03:25 14.57229 -90.53174 4877 ft 35 kts 198°
2026-04-17 03:26 14.57103 -90.53215 4876 ft 15 kts 197°
2026-04-17 03:26 14.57069 -90.53172 4878 ft 7 kts 90°
2026-04-17 03:26 14.57092 -90.53147 4876 ft 4 kts 18°
2026-04-17 03:26 14.57124 -90.53136 4878 ft 7 kts 18°
2026-04-17 03:27 14.57418 -90.53041 4880 ft 83 kts 17°
2026-04-17 03:27 14.58188 -90.52793 4912 ft 147 kts 17°
2026-04-17 03:27 14.59287 -90.52431 5146 ft 181 kts 18°
2026-04-17 03:27 14.60432 -90.51874 6053 ft 183 kts 41°
2026-04-17 03:28 14.61046 -90.50761 6775 ft 184 kts 81°
2026-04-17 03:28 14.60876 -90.49403 7135 ft 202 kts 107°
2026-04-17 03:28 14.60645 -90.47921 7429 ft 220 kts 83°
2026-04-17 03:28 14.61020 -90.46307 7728 ft 242 kts 72°
2026-04-17 03:29 14.61524 -90.44574 8103 ft 262 kts 72°
2026-04-17 03:29 14.62067 -90.42760 8801 ft 265 kts 71°
2026-04-17 03:29 14.62623 -90.40935 9631 ft 268 kts 71°
2026-04-17 03:29 14.63198 -90.39078 10322 ft 275 kts 71°
2026-04-17 03:30 14.63780 -90.37209 11023 ft 281 kts 71°
2026-04-17 03:30 14.64401 -90.35227 11429 ft 300 kts 71°
2026-04-17 03:30 14.65047 -90.33103 11841 ft 317 kts 76°
2026-04-17 03:30 14.65130 -90.30809 12466 ft 324 kts 100°
2026-04-17 03:31 14.64331 -90.28638 13319 ft 327 kts 121°
2026-04-17 03:31 14.63040 -90.26689 14130 ft 329 kts 123°
2026-04-17 03:31 14.61732 -90.24737 14870 ft 333 kts 123°
2026-04-17 03:31 14.60395 -90.22764 15551 ft 337 kts 123°
2026-04-17 03:32 14.59034 -90.20770 16233 ft 341 kts 123°
2026-04-17 03:32 14.57653 -90.18755 16933 ft 345 kts 123°
2026-04-17 03:32 14.56256 -90.16719 17571 ft 350 kts 123°
2026-04-17 03:32 14.54842 -90.14661 18190 ft 354 kts 123°
2026-04-17 03:33 14.53409 -90.12578 18757 ft 357 kts 123°
2026-04-17 03:33 14.51959 -90.10469 19275 ft 362 kts 123°
2026-04-17 03:33 14.50558 -90.08304 19784 ft 364 kts 114°
2026-04-17 03:33 14.49786 -90.05873 20296 ft 363 kts 98°
2026-04-17 03:34 14.49323 -90.03292 20749 ft 368 kts 98°
2026-04-17 03:34 14.48871 -90.00681 21288 ft 371 kts 97°
2026-04-17 03:34 14.48430 -89.98040 21758 ft 375 kts 97°
2026-04-17 03:34 14.47994 -89.95365 22265 ft 379 kts 97°
2026-04-17 03:35 14.47562 -89.92673 22771 ft 382 kts 96°
2026-04-17 03:35 14.47127 -89.89952 23265 ft 386 kts 96°
2026-04-17 03:35 14.46687 -89.87202 23739 ft 389 kts 96°
2026-04-17 03:35 14.46245 -89.84432 24147 ft 392 kts 96°
2026-04-17 03:36 14.45359 -89.78891 25031 ft 396 kts 96°
2026-04-17 03:36 14.44909 -89.76082 25469 ft 397 kts 96°
2026-04-17 03:36 14.44459 -89.73267 25905 ft 399 kts 96°
2026-04-17 03:37 14.44003 -89.70425 26331 ft 401 kts 96°
2026-04-17 03:37 14.43547 -89.67582 26747 ft 403 kts 96°
2026-04-17 03:37 14.43087 -89.64715 27046 ft 406 kts 96°
2026-04-17 03:37 14.42627 -89.61851 27100 ft 403 kts 96°
2026-04-17 03:38 14.42170 -89.59007 27094 ft 402 kts 96°
2026-04-17 03:38 14.41713 -89.56162 27101 ft 402 kts 96°
2026-04-17 03:38 14.41255 -89.53319 27081 ft 402 kts 96°
2026-04-17 03:38 14.40801 -89.50504 27092 ft 402 kts 96°
2026-04-17 03:39 14.40343 -89.47662 27083 ft 402 kts 96°
2026-04-17 03:39 14.39884 -89.44817 27080 ft 402 kts 96°
2026-04-17 03:39 14.39425 -89.41973 27073 ft 402 kts 97°
2026-04-17 03:39 14.38966 -89.39131 27072 ft 402 kts 97°
2026-04-17 03:40 14.38505 -89.36282 27080 ft 402 kts 97°
2026-04-17 03:40 14.38045 -89.33441 27044 ft 402 kts 96°
2026-04-17 03:40 14.37585 -89.30601 27083 ft 402 kts 96°
2026-04-17 03:40 14.37123 -89.27754 27084 ft 402 kts 96°
2026-04-17 03:41 14.36663 -89.24912 27069 ft 401 kts 97°
2026-04-17 03:41 14.36202 -89.22075 27071 ft 401 kts 96°
2026-04-17 03:41 14.35746 -89.19268 27038 ft 401 kts 96°
2026-04-17 03:41 14.35278 -89.16391 27042 ft 401 kts 97°
2026-04-17 03:42 14.34821 -89.13590 27028 ft 402 kts 96°
2026-04-17 03:42 14.34357 -89.10749 27053 ft 402 kts 97°
2026-04-17 03:42 14.33894 -89.07911 27048 ft 401 kts 97°
2026-04-17 03:42 14.33429 -89.05068 27034 ft 401 kts 97°
2026-04-17 03:43 14.32965 -89.02232 27029 ft 401 kts 97°
2026-04-17 03:43 14.32500 -88.99393 27038 ft 401 kts 97°
2026-04-17 03:43 14.32036 -88.96557 27053 ft 401 kts 97°
2026-04-17 03:43 14.31571 -88.93724 27042 ft 401 kts 97°
2026-04-17 03:44 14.31106 -88.90888 27025 ft 401 kts 97°
2026-04-17 03:44 14.30639 -88.88046 27038 ft 401 kts 97°
2026-04-17 03:44 14.30172 -88.85208 27024 ft 401 kts 96°
2026-04-17 03:44 14.29707 -88.82378 27029 ft 400 kts 96°
2026-04-17 03:45 14.29241 -88.79549 27037 ft 400 kts 96°
2026-04-17 03:45 14.28775 -88.76717 27032 ft 400 kts 96°
2026-04-17 03:45 14.28308 -88.73887 26802 ft 400 kts 96°
2026-04-17 03:45 14.27847 -88.71095 26549 ft 400 kts 96°
2026-04-17 03:46 14.27379 -88.68261 26255 ft 401 kts 96°
2026-04-17 03:46 14.26909 -88.65416 25983 ft 402 kts 96°
2026-04-17 03:46 14.26439 -88.62576 25712 ft 402 kts 97°
2026-04-17 03:46 14.25659 -88.59801 25428 ft 406 kts 112°
2026-04-17 03:47 14.24428 -88.57186 25180 ft 406 kts 111°
2026-04-17 03:47 14.23243 -88.54542 24905 ft 405 kts 111°
2026-04-17 03:47 14.22047 -88.51912 24635 ft 404 kts 112°
2026-04-17 03:47 14.20848 -88.49296 24304 ft 403 kts 112°
2026-04-17 03:48 14.19651 -88.46692 24019 ft 402 kts 112°
2026-04-17 03:48 14.18453 -88.44090 23704 ft 401 kts 112°
2026-04-17 03:48 14.17259 -88.41496 23358 ft 400 kts 112°
2026-04-17 03:48 14.16070 -88.38917 22999 ft 394 kts 112°
2026-04-17 03:49 14.14901 -88.36380 22636 ft 388 kts 112°
2026-04-17 03:49 14.13763 -88.33912 22292 ft 385 kts 112°
2026-04-17 03:49 14.12619 -88.31430 21821 ft 382 kts 112°
2026-04-17 03:49 14.11484 -88.28971 21235 ft 378 kts 112°
2026-04-17 03:50 14.10363 -88.26542 20657 ft 373 kts 112°
2026-04-17 03:50 14.09254 -88.24141 20107 ft 369 kts 112°
2026-04-17 03:50 14.08158 -88.21766 19552 ft 365 kts 113°
2026-04-17 03:50 14.07074 -88.19418 19115 ft 362 kts 113°
2026-04-17 03:51 14.05996 -88.17083 18668 ft 359 kts 113°
2026-04-17 03:51 14.04925 -88.14770 18262 ft 357 kts 113°
2026-04-17 03:51 14.03866 -88.12480 17773 ft 353 kts 113°
2026-04-17 03:51 14.02812 -88.10199 17303 ft 351 kts 113°
2026-04-17 03:52 14.01768 -88.07942 16848 ft 348 kts 113°
2026-04-17 03:52 14.00746 -88.05733 16396 ft 344 kts 113°
2026-04-17 03:52 13.99721 -88.03519 15950 ft 340 kts 113°
2026-04-17 03:52 13.98693 -88.01299 15523 ft 337 kts 113°
2026-04-17 03:53 13.97701 -87.99158 15092 ft 334 kts 113°
2026-04-17 03:53 13.96704 -87.97006 14671 ft 331 kts 113°
2026-04-17 03:53 13.95717 -87.94875 14272 ft 328 kts 113°
2026-04-17 03:53 13.94738 -87.92761 13843 ft 325 kts 114°
2026-04-17 03:54 13.93765 -87.90663 13388 ft 323 kts 114°
2026-04-17 03:54 13.92797 -87.88577 12898 ft 322 kts 113°
2026-04-17 03:54 13.91835 -87.86503 12444 ft 322 kts 113°
2026-04-17 03:54 13.90880 -87.84444 12228 ft 316 kts 114°
2026-04-17 03:55 13.89943 -87.82428 12042 ft 308 kts 112°
2026-04-17 03:55 13.89027 -87.80453 11854 ft 303 kts 113°
2026-04-17 03:55 13.88122 -87.78503 11685 ft 302 kts 113°
2026-04-17 03:55 13.87255 -87.76546 11490 ft 299 kts 106°
2026-04-17 03:56 13.86990 -87.74471 11212 ft 290 kts 82°
2026-04-17 03:56 13.87400 -87.72449 11090 ft 290 kts 73°
2026-04-17 03:56 13.87932 -87.70463 10952 ft 292 kts 72°
2026-04-17 03:56 13.88506 -87.68476 10790 ft 288 kts 71°
2026-04-17 03:57 13.89099 -87.66509 10617 ft 287 kts 71°
2026-04-17 03:57 13.89700 -87.64555 10449 ft 286 kts 71°
2026-04-17 03:57 13.90308 -87.62611 10291 ft 284 kts 70°
2026-04-17 03:57 13.90918 -87.60674 10117 ft 285 kts 70°
2026-04-17 03:58 13.91532 -87.58737 9910 ft 284 kts 70°
2026-04-17 03:58 13.91937 -87.57462 9784 ft 282 kts 70°
2026-04-17 03:58 13.92548 -87.55540 9553 ft 282 kts 70°
2026-04-17 03:58 13.93158 -87.53618 9353 ft 282 kts 70°
2026-04-17 03:59 13.93768 -87.51698 9129 ft 280 kts 69°
2026-04-17 03:59 13.94374 -87.49791 8910 ft 280 kts 70°
2026-04-17 03:59 13.94977 -87.47890 8683 ft 279 kts 70°
2026-04-17 03:59 13.95578 -87.45995 8454 ft 277 kts 69°
2026-04-17 04:00 13.96178 -87.44107 8245 ft 277 kts 70°
2026-04-17 04:00 13.96774 -87.42230 8008 ft 273 kts 70°
2026-04-17 04:00 13.97350 -87.40405 7798 ft 264 kts 69°
2026-04-17 04:00 13.97905 -87.38655 7681 ft 249 kts 70°
2026-04-17 04:01 13.98430 -87.37000 7702 ft 241 kts 68°
2026-04-17 04:01 13.98948 -87.35373 7670 ft 238 kts 69°
2026-04-17 04:01 13.99462 -87.33746 7495 ft 239 kts 69°
2026-04-17 04:01 13.99977 -87.32130 7386 ft 238 kts 70°
2026-04-17 04:02 14.00496 -87.30496 7442 ft 242 kts 70°
2026-04-17 04:02 14.01016 -87.28842 7465 ft 245 kts 70°
2026-04-17 04:02 14.01537 -87.27199 7461 ft 244 kts 70°
2026-04-17 04:02 14.02061 -87.25542 7461 ft 243 kts 71°
2026-04-17 04:03 14.02583 -87.23889 7458 ft 243 kts 70°
2026-04-17 04:03 14.03178 -87.22260 7439 ft 242 kts 58°
2026-04-17 04:03 14.04254 -87.20951 7470 ft 240 kts 39°
2026-04-17 04:03 14.05566 -87.19888 7456 ft 240 kts 34°
2026-04-17 04:04 14.06923 -87.18891 7446 ft 240 kts 35°
2026-04-17 04:04 14.08293 -87.17901 7384 ft 241 kts 34°
2026-04-17 04:04 14.09682 -87.16943 7185 ft 240 kts 33°
2026-04-17 04:04 14.11118 -87.16081 7060 ft 237 kts 18°
2026-04-17 04:05 14.12729 -87.16000 7008 ft 233 kts 347°
2026-04-17 04:05 14.14199 -87.16703 7052 ft 237 kts 324°
2026-04-17 04:05 14.15289 -87.17977 7056 ft 241 kts 299°
2026-04-17 04:05 14.15731 -87.19637 7058 ft 243 kts 277°
2026-04-17 04:06 14.15899 -87.21353 7050 ft 239 kts 279°
2026-04-17 04:06 14.16100 -87.23049 7123 ft 239 kts 279°
2026-04-17 04:06 14.16310 -87.24747 7083 ft 239 kts 280°
2026-04-17 04:06 14.16526 -87.26438 7009 ft 238 kts 280°
2026-04-17 04:07 14.16744 -87.28103 6849 ft 237 kts 280°
2026-04-17 04:07 14.16971 -87.29810 6602 ft 238 kts 280°
2026-04-17 04:07 14.17107 -87.31477 6341 ft 236 kts 265°
2026-04-17 04:07 14.16424 -87.32942 6195 ft 221 kts 223°
2026-04-17 04:08 14.15134 -87.33639 6167 ft 206 kts 194°
2026-04-17 04:08 14.13714 -87.33793 6315 ft 206 kts 174°
2026-04-17 04:08 14.12331 -87.33524 6375 ft 201 kts 159°
2026-04-17 04:08 14.11075 -87.32975 6250 ft 194 kts 151°
2026-04-17 04:09 14.09839 -87.32499 6049 ft 186 kts 159°
2026-04-17 04:09 14.08735 -87.31879 5816 ft 177 kts 137°
2026-04-17 04:09 14.07937 -87.30979 5543 ft 165 kts 125°
2026-04-17 04:09 14.07349 -87.30002 5423 ft 159 kts 116°
2026-04-17 04:10 14.06792 -87.29007 5295 ft 161 kts 118°
2026-04-17 04:10 14.06244 -87.28018 5037 ft 158 kts 115°
2026-04-17 04:10 14.05720 -87.27027 4745 ft 156 kts 117°
2026-04-17 04:10 14.05192 -87.26067 4500 ft 156 kts 117°
2026-04-17 04:11 14.04662 -87.25090 4361 ft 157 kts 116°
2026-04-17 04:11 14.04240 -87.24065 4090 ft 154 kts 100°
2026-04-17 04:11 14.04262 -87.22989 3856 ft 149 kts 67°
2026-04-17 04:11 14.04893 -87.22200 3528 ft 144 kts 27°
2026-04-17 04:12 14.05802 -87.21825 3290 ft 133 kts 19°
2026-04-17 04:12 14.06473 -87.21584 3269 ft 55 kts 19°
2026-04-17 04:12 14.06595 -87.21608 3268 ft 14 kts 267°
2026-04-17 04:12 14.06543 -87.21648 3269 ft 7 kts 198°
2026-04-17 04:13 14.06491 -87.21666 3269 ft 8 kts 198°
2026-04-17 04:13 14.06434 -87.21685 3269 ft 9 kts 198°
2026-04-17 04:13 14.06381 -87.21704 3272 ft 7 kts 199°
2026-04-17 04:13 14.06339 -87.21719 3274 ft 6 kts 199°
2026-04-17 04:14 14.06309 -87.21730 3274 ft 3 kts 199°
2026-04-17 04:14 14.06293 -87.21736 3277 ft 4 kts 199°
2026-04-17 04:14 14.06266 -87.21746 3274 ft 4 kts 199°
2026-04-17 04:14 14.06247 -87.21753 3267 ft 2 kts 199°
2026-04-17 04:15 14.06239 -87.21755 3270 ft 0 kts 199°
2026-04-17 04:15 14.06232 -87.21758 3267 ft 2 kts 199°
2026-04-17 04:15 14.06212 -87.21765 3267 ft 3 kts 199°
2026-04-17 04:16 14.06195 -87.21771 3269 ft 2 kts 199°
2026-04-17 04:16 14.06184 -87.21775 3267 ft 3 kts 199°
2026-04-17 04:16 14.06152 -87.21786 3270 ft 5 kts 198°
2026-04-17 04:16 14.06126 -87.21794 3273 ft 3 kts 198°
2026-04-17 04:17 14.06107 -87.21801 3274 ft 2 kts 198°
2026-04-17 04:17 14.06078 -87.21811 3273 ft 8 kts 198°
2026-04-17 04:17 14.06050 -87.21839 3276 ft 4 kts 284°
2026-04-17 04:17 14.06058 -87.21867 3275 ft 5 kts 289°
2026-04-17 04:18 14.06061 -87.21876 3276 ft 0 kts 288°